This is the latest recevied weather packets stored in our database for station/object WB3IGR. If no packets are shown the sender has not sent any weather packets the latest 10 day(s).
| Time | Temp. | Humidity | Pressure | Rain* | Wind** | Luminosity | Snow |
|---|---|---|---|---|---|---|---|
| 1777511301 | 9.44° C | 99% | 1010.1 hPa | 0 mm | - | 0 W/m² | - |
| 1777510996 | 9.44° C | 99% | 1009.8 hPa | 0 mm | - | 0 W/m² | - |
| 1777510693 | 9.44° C | 98% | 1009.9 hPa | 0 mm | - | 0 W/m² | - |
| 1777510389 | 9.44° C | 98% | 1009.6 hPa | 3.05 mm | - | 0 W/m² | - |
| 1777510085 | 9.44° C | 98% | 1008.4 hPa | 3.05 mm | - | 0 W/m² | - |
| 1777509782 | 9.44° C | 98% | 1007.6 hPa | 6.1 mm | - | 0 W/m² | - |
| 1777509477 | 9.44° C | 98% | 1008.2 hPa | 6.1 mm | - | 0 W/m² | - |
| 1777509176 | 9.44° C | 97% | 1008.8 hPa | 3.05 mm | - | 0 W/m² | - |
| 1777508872 | 10° C | 97% | 1009.1 hPa | 1.78 mm | - | 0 W/m² | - |
| 1777508569 | 10° C | 97% | 1009.1 hPa | 1.78 mm | - | 0 W/m² | - |
| 1777508266 | 10° C | 96% | 1009.7 hPa | 1.78 mm | - | 0 W/m² | - |
| 1777507963 | 10° C | 95% | 1009.9 hPa | 1.27 mm | - | 0 W/m² | - |
| 1777507659 | 10° C | 96% | 1010.1 hPa | 1.78 mm | - | 0 W/m² | - |
| 1777507357 | 10.56° C | 96% | 1010.1 hPa | 1.78 mm | - | 0 W/m² | - |
| 1777507054 | 10.56° C | 96% | 1010.2 hPa | 1.27 mm | - | 0 W/m² | - |
| 1777506752 | 10.56° C | 96% | 1009.8 hPa | 4.32 mm | - | 0 W/m² | - |
| 1777506448 | 10.56° C | 96% | 1010 hPa | 4.83 mm | - | 0 W/m² | - |
| 1777506144 | 10.56° C | 97% | 1010 hPa | 3.05 mm | - | 0 W/m² | - |
| 1777505840 | 10.56° C | 96% | 1009.7 hPa | 3.05 mm | - | 0 W/m² | - |
| 1777505536 | 10.56° C | 96% | 1009.7 hPa | 3.05 mm | - | 1 W/m² | - |
| 1777505233 | 10.56° C | 96% | 1009.7 hPa | 3.05 mm | - | 2 W/m² | - |
| 1777504930 | 11.11° C | 96% | 1009.9 hPa | 1.78 mm | - | 2 W/m² | - |
| 1777504627 | 11.11° C | 96% | 1010.1 hPa | 1.27 mm | - | 2 W/m² | - |
| 1777504323 | 11.11° C | 96% | 1009.9 hPa | 1.78 mm | - | 3 W/m² | - |
| 1777504018 | 11.11° C | 96% | 1010 hPa | 4.83 mm | - | 4 W/m² | - |
* Rain latest hour (hover to see other rain measurements)
** Current wind speed in m/s (hover to see current wind gust speed)